Location: Peebles
(55.6412°N, 3.1714°W)
Time: 17:40:51
(UTC+01:00)

USA 281 - Pass Details

Date: 01 February 2022
Orbit: 1070 x 1089 km, 106.0° (Epoch: 25 March)

Event Time Altitude Azimuth Distance (km) Brightness Sun altitude
Rises 07:03:14 0° 53° (NE) 3,898 6.7 -9.0°
Reaches altitude 10° 07:06:44 10° 35° (NE) 2,944 5.7 -8.5°
Maximum altitude 07:10:38 17° 358° (N) 2,471 4.9 -8.0°
Drops below altitude 10° 07:14:32 10° 321° (NW) 2,948 5.0 -7.4°
Enters shadow 07:16:02 - 312° (NW) 3,320 5.2 -7.2°
